Weather History for KACT - October, 2012

Change the Weather History Date:

Tuesday, October 9, 2012

  Actual Average Record
Temperature  
Mean Temperature 69 °F 70 °F  
Max Temperature 82 °F 82 °F 94 °F (1963)
Min Temperature 55 °F 59 °F 37 °F (1952)
Degree Days  
Heating Degree Days 0 1  
Month to date heating degree days 32 9  
Since 1 July heating degree days 32 15  
Cooling Degree Days 4 6  
Month to date cooling degree days 39 66  
Year to date cooling degree days 3037 2660  
Growing Degree Days 18 (Base 50)    
Moisture  
Dew Point 57 °F    
Average Humidity 69    
Maximum Humidity 87    
Minimum Humidity 51    
Precipitation  
Precipitation 0.00 in 0.13 in 5.83 in (2011)
Month to date precipitation T 1.05  
Year to date precipitation 31.47 26.27  
Snow  
Snow 0.00 in 0.00 in 0.00 in ()
Month to date snowfall 0.0 0.0  
Since 1 July snowfall 0.0 0.0  
Since 1 September snowfall 0.0 0.0  
Snow Depth 0.00 in    
Sea Level Pressure  
Sea Level Pressure 29.98 in    
Wind  
Wind Speed 12 mph (South)    
Max Wind Speed 24 mph    
Max Gust Speed 31 mph    
Visibility 10 miles    
Events      
T = Trace of Precipitation, MM = Missing Value Source: NWS Daily Summary

Daily Weather History Graph

Daily Weather History Graph

Search for Another Location

Airport or City:

Trip Planner

Search our weather history database for the weather conditions in past years. The results will help you decide how hot, cold, wet, or windy it might be!

Date:

Astronomy

Oct. 09, 2012 Rise Set
Actual Time 7:28 AM CDT 7:03 PM CDT
Civil Twilight 7:03 AM CDT 7:27 PM CDT
Nautical Twilight 6:35 AM CDT 7:55 PM CDT
Astronomical Twilight 6:07 AM CDT 8:23 PM CDT
Moon 1:27 AM CDT (10/9) 3:11 PM CDT (10/9)
Length of Visible Light 12h 23m
Length of Day
11h 34m
Last Quarter, 36% of the Moon is Illuminated
Oct 9
Last Quarter
Oct 15
New
Oct 21
First Quarter
Oct 29
Full
Nov 6
Last Quarter

Hourly Weather History & Observations

Time (CDT) Temp. Heat Index Dew Point Humidity Pressure Visibility Wind Dir Wind Speed Gust Speed Precip Events Conditions
12:51 AM 55.9 °F - 48.9 °F 77% 30.06 in 10.0 mi SSE 8.1 mph - N/A   Clear
1:51 AM 55.9 °F - 48.9 °F 77% 30.04 in 10.0 mi SSE 10.4 mph - N/A   Clear
2:51 AM 55.4 °F - 48.2 °F 77% 30.06 in 10.0 mi SSE 9.2 mph - N/A   Scattered Clouds
3:51 AM 55.9 °F - 50.0 °F 80% 30.03 in 10.0 mi SE 8.1 mph - N/A   Overcast
4:51 AM 57.9 °F - 51.1 °F 78% 30.01 in 10.0 mi SSE 12.7 mph - N/A   Overcast
5:51 AM 59.0 °F - 52.0 °F 78% 30.01 in 10.0 mi South 11.5 mph - N/A   Overcast
6:51 AM 59.0 °F - 51.8 °F 77% 30.03 in 10.0 mi SSE 11.5 mph - N/A   Overcast
7:51 AM 59.0 °F - 53.1 °F 81% 30.03 in 10.0 mi SSE 9.2 mph - N/A   Overcast
8:34 AM 60.8 °F - 53.6 °F 77% 30.05 in 10.0 mi SSE 13.8 mph - N/A   Overcast
8:51 AM 62.6 °F - 53.6 °F 72% 30.05 in 10.0 mi South 16.1 mph - N/A   Overcast
9:51 AM 64.0 °F - 55.0 °F 73% 30.05 in 10.0 mi South 11.5 mph - N/A   Overcast
10:51 AM 66.0 °F - 55.9 °F 70% 30.04 in 10.0 mi South 16.1 mph - N/A   Overcast
11:51 AM 70.0 °F - 57.0 °F 63% 30.02 in 10.0 mi South 13.8 mph - N/A   Overcast
12:51 PM 71.1 °F - 60.1 °F 68% 29.99 in 10.0 mi South 17.3 mph - N/A   Overcast
1:51 PM 75.0 °F - 62.1 °F 64% 29.95 in 9.0 mi South 16.1 mph - N/A   Overcast
2:51 PM 78.1 °F - 63.0 °F 60% 29.91 in 10.0 mi SSW 17.3 mph 28.8 mph N/A   Overcast
2:58 PM 78.8 °F - 62.6 °F 57% 29.92 in 10.0 mi South 18.4 mph 26.5 mph N/A   Mostly Cloudy
3:51 PM 81.0 °F 82.2 °F 63.0 °F 54% 29.89 in 10.0 mi South 19.6 mph 26.5 mph N/A   Mostly Cloudy
4:51 PM 82.4 °F 83.4 °F 62.6 °F 51% 29.88 in 10.0 mi SSW 19.6 mph 27.6 mph N/A   Clear
5:51 PM 80.1 °F 81.7 °F 64.0 °F 58% 29.86 in 10.0 mi South 13.8 mph - N/A   Clear
6:51 PM 77.0 °F - 64.0 °F 64% 29.87 in 10.0 mi South 12.7 mph - N/A   Clear
7:51 PM 73.9 °F - 64.0 °F 71% 29.88 in 10.0 mi South 10.4 mph - N/A   Clear
8:51 PM 72.0 °F - 63.0 °F 73% 29.92 in 10.0 mi South 9.2 mph - N/A   Clear
9:51 PM 69.1 °F - 63.0 °F 81% 29.94 in 10.0 mi South 8.1 mph - N/A   Clear
10:51 PM 68.0 °F - 63.0 °F 84% 29.95 in 10.0 mi South 4.6 mph - N/A   Clear
11:51 PM 68.0 °F - 64.0 °F 87% 29.96 in 10.0 mi SSE 6.9 mph - N/A   Clear